This is the latest recevied weather packets stored in our database for station/object HS5BOG-13. If no packets are shown the sender has not sent any weather packets the latest 10 day(s).
| Time | Temp. | Humidity | Pressure | Rain* | Wind** | Luminosity | Snow |
|---|---|---|---|---|---|---|---|
| 1777735711 | 31.67° C | 47% | 990.3 hPa | - | - | - | - |
| 1777735105 | 31.67° C | 47% | 990.3 hPa | - | - | - | - |
| 1777734500 | 31.67° C | 47% | 990.2 hPa | - | - | - | - |
| 1777733894 | 32.22° C | 46% | 989.7 hPa | - | - | - | - |
| 1777733288 | 32.22° C | 45% | 989.7 hPa | - | - | - | - |
| 1777732683 | 32.22° C | 45% | 989.7 hPa | - | - | - | - |
| 1777732077 | 32.22° C | 44% | 989.6 hPa | - | - | - | - |
| 1777731472 | 32.22° C | 44% | 989.6 hPa | - | - | - | - |
| 1777730866 | 32.22° C | 43% | 989.5 hPa | - | - | - | - |
| 1777730260 | 32.22° C | 43% | 989.4 hPa | - | - | - | - |
| 1777729655 | 32.22° C | 41% | 989.2 hPa | - | - | - | - |
| 1777729049 | 32.22° C | 40% | 989.1 hPa | - | - | - | - |
| 1777728444 | 32.22° C | 41% | 989.2 hPa | - | - | - | - |
| 1777727838 | 32.78° C | 41% | 989.1 hPa | - | - | - | - |
| 1777727233 | 32.78° C | 41% | 988.9 hPa | - | - | - | - |
| 1777726627 | 32.78° C | 40% | 988.6 hPa | - | - | - | - |
| 1777726022 | 32.78° C | 40% | 988.4 hPa | - | - | - | - |
| 1777725416 | 32.78° C | 39% | 988.2 hPa | - | - | - | - |
| 1777724811 | 32.78° C | 40% | 987.9 hPa | - | - | - | - |
| 1777724205 | 32.78° C | 40% | 987.8 hPa | - | - | - | - |
| 1777723599 | 32.78° C | 40% | 987.6 hPa | - | - | - | - |
| 1777722994 | 33.33° C | 35% | 987.3 hPa | - | - | - | - |
| 1777722388 | 33.33° C | 40% | 987 hPa | - | - | - | - |
| 1777721782 | 33.33° C | 41% | 987 hPa | - | - | - | - |
| 1777721177 | 33.33° C | 40% | 986.9 hPa | - | - | - | - |
* Rain since midnight (hover to see other rain measurements)
** Current wind speed in m/s (hover to see current wind gust speed)